Le nostre stazioni meteo in Italia

Pubblicità
Il mio iltempo24.it
Geneve-Cointrin, Svizzera (6700): Temperatura & dewpoint: 15.08.2019 14:00:00 - 21.08.2019 14:00:00 (CEST)Geneve-Cointrin, Svizzera (6700): Temperatura 5cm: 15.08.2019 14:00:00 - 21.08.2019 14:00:00 (CEST)Geneve-Cointrin, Svizzera (6700): velocità del vento & gusts: 15.08.2019 14:00:00 - 21.08.2019 14:00:00 (CEST)Geneve-Cointrin, Svizzera (6700): direzione del vento: 15.08.2019 14:00:00 - 21.08.2019 14:00:00 (CEST)Geneve-Cointrin, Svizzera (6700): reduced air pressure: 15.08.2019 14:00:00 - 21.08.2019 14:00:00 (CEST)Geneve-Cointrin, Svizzera (6700): visibility: 15.08.2019 14:00:00 - 21.08.2019 14:00:00 (CEST)Geneve-Cointrin, Svizzera (6700): ore di luce: 15.08.2019 14:00:00 - 21.08.2019 14:00:00 (CEST)Geneve-Cointrin, Svizzera (6700): precipitazioni: 15.08.2019 14:00:00 - 21.08.2019 14:00:00 (CEST)
Data & Tempo tt [°C] td [°C] tt 5cm [°C] ff [km/h] ff [kn] fx [km/h] fx [kn] dd ppp [hPa] vv [km] sd [min] rr [mm]
21.08.2019 14:00:00 19,5 12,8 23,9 21 11 40 22 NNE 1023,5 - 24 0,0
21.08.2019 13:00:00 17,9 11,8 21,1 24 13 40 21 NE 1024,3 - 5 0,0
21.08.2019 12:00:00 16,5 11,5 17,8 24 13 44 24 NE 1025,0 - 0 0,0
21.08.2019 11:00:00 16,4 11,4 18,0 22 12 39 21 NE 1024,9 60 11 0,0
21.08.2019 10:00:00 15,2 10,9 15,5 23 12 41 22 NE 1025,2 - 0 0,0
21.08.2019 09:00:00 14,8 11,1 13,8 16 9 35 19 NNE 1025,4 - 1 0,0
21.08.2019 08:00:00 14,5 11,2 13,3 18 10 39 21 NNE 1025,8 60 0 0,0
21.08.2019 07:00:00 13,9 11,3 12,2 24 13 39 21 NNE 1025,7 - 0 0,0
21.08.2019 06:00:00 13,9 11,1 11,8 23 12 39 21 NE 1025,6 - 0 0,0
21.08.2019 05:00:00 13,9 11,2 11,8 21 12 39 21 NE 1025,8 - 0 0,0
21.08.2019 04:00:00 14,2 11,8 12,2 15 8 33 18 NNE 1025,8 - 0 0,0
21.08.2019 03:00:00 11,5 10,2 10,0 2 1 12 6 NNO 1026,3 - 0 0,0
21.08.2019 02:00:00 11,4 10,7 9,0 7 4 13 7 N 1026,8 - 0 0,0
21.08.2019 01:00:00 11,1 10,4 9,4 4 2 13 7 NNO 1027,1 - 0 0,0
21.08.2019 00:00:00 12,5 10,5 9,5 8 4 15 8 N 1027,1 - 0 0,0
20.08.2019 23:00:00 12,8 10,9 10,3 4 2 10 6 NNE 1027,2 60 0 0,0
20.08.2019 22:00:00 12,9 11,8 11,2 6 3 20 11 N 1027,0 - 0 0,0
20.08.2019 21:00:00 14,1 12,4 13,0 10 5 22 12 N 1026,4 - 0 0,0
20.08.2019 20:00:00 14,5 13,1 13,9 15 8 26 14 NE 1026,1 25 0 0,1
20.08.2019 19:00:00 14,8 13,7 14,5 7 4 13 7 NE 1026,6 - 0 0,6
20.08.2019 18:00:00 15,1 14,2 14,9 4 2 9 5 NNE 1025,9 - 0 2,3
20.08.2019 17:00:00 15,1 14,1 15,0 5 3 10 6 E 1025,6 9 0 1,8
20.08.2019 16:00:00 15,4 14,4 15,5 3 2 19 11 SE 1024,9 - 0 1,8
20.08.2019 15:00:00 15,9 14,1 15,6 6 4 20 11 ENE 1024,1 - 0 1,4
20.08.2019 14:00:00 17,0 16,3 16,7 3 2 25 14 S 1023,2 9 0 1,1
20.08.2019 13:00:00 17,0 16,3 17,0 3 2 20 11 N 1022,7 - 0 1,9
20.08.2019 12:00:00 16,5 15,7 16,5 5 3 11 6 NE 1022,2 - 0 1,8
20.08.2019 11:00:00 16,5 15,5 16,6 6 3 10 5 NNE 1022,0 9 0 1,5
20.08.2019 10:00:00 16,3 15,5 16,3 4 2 10 6 ONO 1021,9 - 0 2,4
20.08.2019 09:00:00 16,3 15,2 16,0 1 1 8 4 NNE 1021,3 - 0 1,9
20.08.2019 08:00:00 16,3 15,4 15,6 3 2 8 5 NO 1021,0 10 0 1,0
20.08.2019 07:00:00 16,5 15,4 15,9 4 2 8 4 ONO 1020,4 - 0 1,0
20.08.2019 06:00:00 17,0 15,9 16,3 3 2 6 4 OSO 1019,7 - 0 0,0
20.08.2019 05:00:00 16,7 16,0 16,1 4 2 10 5 NE 1019,9 - 0 0,0
20.08.2019 04:00:00 16,9 16,1 16,5 5 3 16 9 NO 1020,6 - 0 0,0
20.08.2019 03:00:00 16,9 15,7 16,3 11 6 19 10 ENE 1020,2 - 0 0,0
20.08.2019 02:00:00 17,6 16,7 17,1 6 3 20 11 N 1020,6 - 0 0,4
20.08.2019 01:00:00 18,1 17,0 17,5 11 6 16 9 ENE 1020,3 - 0 0,3
20.08.2019 00:00:00 18,2 16,6 17,9 3 1 6 3 N 1020,4 - 0 0,0
19.08.2019 23:00:00 18,4 16,1 18,0 3 2 9 5 SE 1020,2 20 0 0,0
19.08.2019 22:00:00 19,0 16,2 18,4 6 3 22 12 OSO 1019,9 - 0 0,0
19.08.2019 21:00:00 19,2 16,9 18,6 8 4 17 9 S 1019,1 - 0 0,0
19.08.2019 20:00:00 19,5 17,2 19,0 5 3 24 13 O 1018,6 25 0 0,2
19.08.2019 19:00:00 20,4 16,9 19,8 21 11 34 18 SSO 1018,1 - 0 0,0
19.08.2019 18:00:00 22,9 16,9 25,9 19 11 31 17 SSO 1017,1 - 11 0,0
19.08.2019 17:00:00 23,2 16,6 22,8 11 6 28 15 OSO 1016,9 30 1 0,0
19.08.2019 16:00:00 22,6 17,0 22,3 7 4 29 16 OSO 1016,8 - 0 1,8
19.08.2019 15:00:00 24,4 15,1 28,3 19 10 35 19 SO 1016,7 - 14 0,0
19.08.2019 14:00:00 24,2 16,1 27,4 22 12 35 19 SSO 1016,8 25 26 0,0
19.08.2019 13:00:00 23,1 17,0 26,8 15 8 24 13 SSO 1016,7 - 16 0,0
19.08.2019 12:00:00 21,2 16,4 22,4 12 6 23 13 S 1017,1 - 0 0,1
19.08.2019 11:00:00 20,8 16,9 22,4 12 7 19 10 SSO 1016,9 23 11 0,0
19.08.2019 10:00:00 20,6 17,4 23,2 8 4 20 11 OSO 1016,7 - 23 0,0
19.08.2019 09:00:00 19,5 17,9 19,5 4 2 9 5 O 1017,1 - 0 0,1
19.08.2019 08:00:00 18,9 18,2 18,2 3 1 9 5 E 1017,2 18 0 0,2
19.08.2019 07:00:00 18,9 18,2 18,2 10 5 14 8 ESE 1016,8 - 0 0,1
19.08.2019 06:00:00 18,8 18,2 18,0 6 3 8 4 ONO 1016,6 - 0 0,0
19.08.2019 05:00:00 18,9 18,1 17,8 8 4 16 9 ESE 1015,9 - 0 0,8
19.08.2019 04:00:00 19,1 18,5 18,5 4 2 10 5 E 1017,0 - 0 1,7
19.08.2019 03:00:00 18,9 18,0 18,0 4 2 9 5 NO 1016,0 - 0 0,0
19.08.2019 02:00:00 19,0 17,9 18,3 6 3 18 10 ONO 1015,8 - 0 0,1
19.08.2019 01:00:00 19,3 18,5 18,4 4 2 10 5 E 1014,9 - 0 0,0
19.08.2019 00:00:00 19,0 17,7 18,0 6 3 32 18 NNO 1015,0 - 0 2,9
18.08.2019 23:00:00 19,3 17,9 18,3 16 8 47 25 SSO 1014,3 15 0 5,1
18.08.2019 22:00:00 26,4 15,3 25,9 9 5 34 18 ONO 1010,9 - 0 0,0
18.08.2019 21:00:00 27,8 15,0 26,3 24 13 35 19 SSO 1009,0 - 0 0,0
18.08.2019 20:00:00 28,6 14,5 26,7 21 11 29 15 SO 1008,7 45 0 0,0
18.08.2019 19:00:00 30,0 14,2 29,7 18 10 34 19 OSO 1008,6 - 37 0,0
18.08.2019 18:00:00 31,8 15,1 33,2 21 12 52 28 OSO 1008,8 - 60 0,0
18.08.2019 17:00:00 32,5 14,0 35,0 30 16 51 27 SO 1008,4 35 60 0,0
18.08.2019 16:00:00 32,9 13,8 36,3 26 14 48 26 OSO 1008,3 - 60 0,0
18.08.2019 15:00:00 32,6 12,2 36,7 35 19 53 28 SO 1008,7 - 60 0,0
18.08.2019 14:00:00 32,0 13,1 34,7 29 16 48 26 OSO 1008,8 50 54 0,0
18.08.2019 13:00:00 30,4 12,4 34,6 24 13 45 24 SO 1008,9 - 59 0,0
18.08.2019 12:00:00 28,8 12,2 33,2 22 12 37 20 OSO 1009,6 - 60 0,0
18.08.2019 11:00:00 27,2 13,4 30,6 18 10 29 16 OSO 1010,0 50 60 0,0
18.08.2019 10:00:00 25,5 12,4 28,6 14 8 24 13 OSO 1010,1 - 60 0,0
18.08.2019 09:00:00 23,3 12,2 26,6 5 3 9 5 OSO 1010,8 - 60 0,0
18.08.2019 08:00:00 20,6 12,7 21,5 1 1 7 4 SO 1011,5 50 35 0,0
18.08.2019 07:00:00 19,0 11,8 14,4 4 2 11 6 SE 1012,0 - 0 0,0
18.08.2019 06:00:00 19,8 11,6 15,1 3 2 16 8 ESE 1011,8 - 0 0,0
18.08.2019 05:00:00 20,0 12,0 17,4 11 6 23 12 OSO 1012,0 - 0 0,0
18.08.2019 04:00:00 22,1 10,7 17,8 11 6 21 12 OSO 1012,1 - 0 0,0
18.08.2019 03:00:00 23,8 10,5 20,1 11 6 34 18 SO 1012,1 - 0 0,0
18.08.2019 02:00:00 24,8 11,1 22,7 16 9 24 13 SO 1012,0 - 0 0,0
18.08.2019 01:00:00 25,6 10,9 21,8 18 10 31 17 SO 1012,0 - 0 0,0
18.08.2019 00:00:00 24,6 11,5 22,5 14 8 27 15 OSO 1012,2 - 0 0,0
17.08.2019 23:00:00 25,0 12,0 22,9 15 8 22 12 OSO 1011,8 50 0 0,0
17.08.2019 22:00:00 26,6 11,6 23,8 10 5 16 8 OSO 1011,4 - 0 0,0
17.08.2019 21:00:00 25,7 12,1 22,3 5 3 13 7 SO 1011,2 - 0 0,0
17.08.2019 20:00:00 27,9 10,7 26,7 8 4 33 18 O 1010,9 50 20 0,0
17.08.2019 19:00:00 31,0 9,3 32,5 22 12 35 19 SSO 1010,5 - 57 0,0
17.08.2019 18:00:00 31,3 9,2 32,8 24 13 48 26 SO 1011,0 - 59 0,0
17.08.2019 17:00:00 32,2 8,3 35,1 27 15 48 26 SO 1010,9 50 52 0,0
17.08.2019 16:00:00 30,8 6,5 33,2 31 17 48 26 SSO 1011,6 - 32 0,0
17.08.2019 15:00:00 31,0 7,0 35,2 18 10 41 22 SO 1011,8 - 51 0,0
17.08.2019 14:00:00 29,3 11,2 32,9 17 9 33 18 OSO 1012,8 50 48 0,0
17.08.2019 13:00:00 28,0 9,7 33,1 24 13 36 19 SO 1013,5 - 60 0,0
17.08.2019 12:00:00 26,4 10,3 30,6 19 10 29 16 SO 1014,2 - 52 0,0
17.08.2019 11:00:00 24,1 12,1 27,6 11 6 21 11 SO 1014,9 50 30 0,0
17.08.2019 10:00:00 21,1 11,3 24,2 13 7 18 10 SO 1015,4 - 22 0,0
17.08.2019 09:00:00 18,9 11,6 19,4 6 4 10 6 SSO 1015,9 - 19 0,0
17.08.2019 08:00:00 15,9 12,1 14,2 1 1 6 3 O 1016,1 50 0 0,0
17.08.2019 07:00:00 14,6 11,9 12,7 2 1 6 4 ONO 1016,4 - 0 0,0
17.08.2019 06:00:00 14,3 11,3 12,4 3 2 6 3 SSO 1016,5 - 0 0,0
17.08.2019 05:00:00 14,3 11,3 11,8 1 0 11 6 ENE 1016,6 - 0 0,0
17.08.2019 04:00:00 13,9 11,8 10,7 3 2 7 4 SE 1016,7 - 0 0,0
17.08.2019 03:00:00 14,6 11,9 11,6 1 1 9 5 ENE 1016,6 - 0 0,0
17.08.2019 02:00:00 14,5 12,0 11,0 3 2 7 4 NO 1016,9 - 0 0,0
17.08.2019 01:00:00 15,1 12,2 12,0 4 2 8 4 ONO 1017,0 - 0 0,0
17.08.2019 00:00:00 16,8 12,6 12,8 1 1 9 5 SO 1016,7 - 0 0,0
16.08.2019 23:00:00 18,7 12,3 14,0 1 1 6 3 NNE 1016,4 60 0 0,0
16.08.2019 22:00:00 19,0 12,3 15,2 1 1 5 3 O 1016,3 - 0 0,0
16.08.2019 21:00:00 19,8 12,0 16,2 1 1 8 4 NE 1015,8 - 0 0,0
16.08.2019 20:00:00 22,4 11,7 21,3 4 2 9 5 O 1015,1 60 20 0,0
16.08.2019 19:00:00 24,4 9,3 25,5 4 2 14 8 NE 1014,6 - 59 0,0
16.08.2019 18:00:00 25,0 9,7 29,0 6 3 14 8 ENE 1015,2 - 45 0,0
16.08.2019 17:00:00 24,3 7,7 27,8 7 4 14 8 ENE 1015,7 60 58 0,0
16.08.2019 16:00:00 24,4 8,5 29,9 6 3 16 9 E 1016,2 - 60 0,0
16.08.2019 15:00:00 23,3 9,5 28,9 11 6 22 12 E 1016,7 - 52 0,0
16.08.2019 14:00:00 22,3 8,8 27,4 14 7 22 12 ENE 1017,3 60 53 0,0
16.08.2019 13:00:00 21,9 9,9 26,5 13 7 25 14 NNE 1017,7 - 60 0,0
16.08.2019 12:00:00 20,7 10,7 25,8 15 8 27 14 NE 1018,4 - 60 0,0
16.08.2019 11:00:00 20,7 12,3 26,2 12 6 22 12 NNE 1019,2 60 59 0,0
16.08.2019 10:00:00 18,2 11,7 24,0 9 5 13 7 E 1020,0 - 60 0,0
16.08.2019 09:00:00 16,5 11,4 21,6 3 1 7 4 ENE 1020,5 - 60 0,0
16.08.2019 08:00:00 13,9 11,0 15,8 2 1 6 4 NNO 1020,8 60 37 0,0
16.08.2019 07:00:00 11,9 9,9 9,1 4 2 9 5 NO 1020,8 - 0 0,0
16.08.2019 06:00:00 12,4 9,8 9,2 2 1 7 4 OSO 1020,7 - 0 0,0
16.08.2019 05:00:00 13,1 10,3 10,5 4 2 8 5 O 1020,7 - 0 0,0
16.08.2019 04:00:00 12,9 10,3 9,9 3 2 7 4 ONO 1021,4 - 0 0,0
16.08.2019 03:00:00 14,8 10,5 11,3 2 1 13 7 ESE 1021,3 - 0 0,0
16.08.2019 02:00:00 17,0 10,4 13,9 8 4 22 12 N 1020,5 - 0 0,0
16.08.2019 01:00:00 15,0 10,4 10,8 3 2 9 5 NNO 1021,1 - 0 0,0
16.08.2019 00:00:00 16,2 10,1 11,9 4 2 9 5 S 1020,7 - 0 0,0
15.08.2019 23:00:00 16,9 9,8 12,7 3 1 14 7 N 1020,3 50 0 0,0
15.08.2019 22:00:00 17,9 10,3 13,5 6 3 10 6 S 1019,9 - 0 0,0
15.08.2019 21:00:00 18,8 10,1 15,0 4 2 14 7 NO 1018,9 - 0 0,0
15.08.2019 20:00:00 20,9 9,5 19,8 9 5 24 13 N 1018,3 50 45 0,0
15.08.2019 19:00:00 22,7 10,2 23,4 12 6 29 16 OSO 1017,2 - 46 0,0
15.08.2019 18:00:00 23,3 10,7 26,8 15 8 32 17 O 1017,0 - 50 0,0
15.08.2019 17:00:00 24,1 10,3 29,7 9 5 39 21 O 1016,4 50 60 0,0
15.08.2019 16:00:00 24,8 12,6 29,8 19 10 37 20 O 1016,1 - 41 0,0
15.08.2019 15:00:00 25,5 12,0 30,7 21 11 39 21 OSO 1015,9 - 37 0,0
15.08.2019 14:00:00 26,1 12,3 31,3 21 12 36 20 SO 1015,6 50 52 0,0

tt = Temperatura
td = dewpoint
tt 5cm = Temperatura 5cm
ff = velocità del vento
fx = gusts
dd = direzione del vento
ppp = reduced air pressure
vv = visibility
sd = ore di luce
rr = precipitazioni

Stazioni seguenti

WeatherPro
AMSI
MeteoEarth